Location: Trois-Rivi�res
(46.3500°N, 72.5500°W)
Time: 07:27:55
(UTC-04:00)

Envisat - Pass Details

Date: 12 October 2017
Orbit: 764 x 766 km, 98.2° (Epoch: 24 October)

Event Time Altitude Azimuth Distance (km) Brightness Sun altitude
Exits shadow 19:53:44 36° 102° (ESE) 1,199 3.5 -18.9°
Maximum altitude 19:54:56 42° 68° (ENE) 1,085 3.4 -19.1°
Drops below altitude 10° 19:59:43 10° 359° (N) 2,313 5.6 -19.9°
Sets 20:02:07 0° 353° (N) 3,244 6.5 -20.3°
